EN

Hourly Weather Bolshoe Kapkovo

Today, 21 October, Wednesday

Time Temperature Precipitation Wind Pressure Humidity
00:00 -2°C° 0 mm 2 mps 741 mmHg 95%
01:00 -2°C° 0 mm 2 mps 741 mmHg 96%
02:00 -2°C° 0 mm 2 mps 741 mmHg 97%
03:00 -2°C° 0 mm 2 mps 741 mmHg 97%
04:00 -2°C° 0 mm 2 mps 741 mmHg 96%
05:00 -2°C° 0 mm 2 mps 741 mmHg 96%
06:00 -1°C° 0 mm 2 mps 741 mmHg 92%
07:00 -1°C° 0 mm 2 mps 741 mmHg 89%
08:00 -1°C° 0 mm 2 mps 741 mmHg 85%
09:00 +1°C° 0.2 mm 2 mps 741 mmHg 88%
10:00 +1°C° 0.2 mm 2 mps 740 mmHg 92%
11:00 +1°C° 0.2 mm 2 mps 740 mmHg 95%
12:00 +1°C° 0.1 mm 2 mps 740 mmHg 95%
13:00 +2°C° 0.1 mm 2 mps 740 mmHg 96%
14:00 +2°C° 0.1 mm 2 mps 740 mmHg 96%
15:00 +2°C° 0.1 mm 2 mps 739 mmHg 97%
16:00 +2°C° 0.1 mm 2 mps 739 mmHg 97%
17:00 +2°C° 0.1 mm 2 mps 738 mmHg 97%
18:00 +2°C° 0.1 mm 2 mps 738 mmHg 97%
19:00 +2°C° 0.1 mm 2 mps 738 mmHg 98%
20:00 +2°C° 0.1 mm 2 mps 738 mmHg 98%
21:00 +2°C° 0.1 mm 2 mps 738 mmHg 98%
22:00 +2°C° 0.1 mm 2 mps 738 mmHg 98%
23:00 +3°C° 0.1 mm 2 mps 737 mmHg 98%

Tomorrow, 22 October, Thursday

Time Temperature Precipitation Wind Pressure Humidity
00:00 +3°C° 0.1 mm 2 mps 738 mmHg 98%
01:00 +3°C° 0.1 mm 2 mps 738 mmHg 98%
02:00 +3°C° 0.1 mm 2 mps 738 mmHg 98%
03:00 +3°C° 0 mm 2 mps 738 mmHg 98%
04:00 +3°C° 0 mm 2 mps 737 mmHg 98%
05:00 +3°C° 0 mm 2 mps 737 mmHg 98%
06:00 +3°C° 0 mm 2 mps 737 mmHg 97%
07:00 +2°C° 0 mm 3 mps 737 mmHg 96%
08:00 +3°C° 0 mm 3 mps 737 mmHg 96%
09:00 +3°C° 0 mm 3 mps 736 mmHg 94%
10:00 +4°C° 0 mm 4 mps 735 mmHg 92%
11:00 +4°C° 0 mm 4 mps 735 mmHg 90%
12:00 +4°C° 0.8 mm 4 mps 734 mmHg 92%
13:00 +4°C° 0.8 mm 4 mps 734 mmHg 93%
14:00 +4°C° 0.8 mm 4 mps 733 mmHg 94%
15:00 +5°C° 0.7 mm 4 mps 732 mmHg 94%
16:00 +5°C° 0.7 mm 4 mps 731 mmHg 95%
17:00 +5°C° 0.7 mm 4 mps 731 mmHg 95%
18:00 +6°C° 0.3 mm 4 mps 730 mmHg 95%
19:00 +6°C° 0.3 mm 4 mps 729 mmHg 94%
20:00 +7°C° 0.3 mm 4 mps 729 mmHg 94%
21:00 +8°C° 0.5 mm 4 mps 729 mmHg 93%
22:00 +8°C° 0.5 mm 5 mps 728 mmHg 92%
23:00 +9°C° 0.5 mm 5 mps 728 mmHg 91%

Day after tomorrow, 23 October, Friday

Time Temperature Precipitation Wind Pressure Humidity
00:00 +9°C° 0.1 mm 5 mps 728 mmHg 89%
01:00 +10°C° 0.1 mm 5 mps 728 mmHg 87%
02:00 +10°C° 0.1 mm 5 mps 728 mmHg 84%
03:00 +10°C° 0.1 mm 5 mps 729 mmHg 85%
04:00 +10°C° 0.1 mm 5 mps 729 mmHg 85%
05:00 +10°C° 0.1 mm 5 mps 729 mmHg 85%
06:00 +9°C° 0 mm 5 mps 730 mmHg 86%
07:00 +9°C° 0 mm 5 mps 730 mmHg 86%
08:00 +9°C° 0 mm 5 mps 730 mmHg 87%
09:00 +9°C° 0 mm 5 mps 730 mmHg 85%
10:00 +9°C° 0 mm 5 mps 731 mmHg 82%
11:00 +10°C° 0 mm 5 mps 731 mmHg 80%
12:00 +10°C° 0.1 mm 5 mps 730 mmHg 82%
13:00 +9°C° 0.1 mm 5 mps 730 mmHg 84%
14:00 +9°C° 0.1 mm 5 mps 730 mmHg 85%
15:00 +10°C° 0.5 mm 4 mps 729 mmHg 88%
16:00 +10°C° 0.5 mm 4 mps 729 mmHg 90%
17:00 +10°C° 0.5 mm 3 mps 728 mmHg 93%
18:00 +10°C° 0.1 mm 4 mps 728 mmHg 92%
19:00 +10°C° 0.1 mm 4 mps 728 mmHg 90%
20:00 +11°C° 0.1 mm 4 mps 728 mmHg 89%
21:00 +10°C° 0.1 mm 4 mps 728 mmHg 89%
22:00 +10°C° 0.1 mm 4 mps 728 mmHg 89%
23:00 +10°C° 0.1 mm 4 mps 728 mmHg 89%

24 October, Saturday

Time Temperature Precipitation Wind Pressure Humidity
00:00 +8°C° 0.1 mm 4 mps 728 mmHg 87%
01:00 +8°C° 0.1 mm 4 mps 728 mmHg 86%
02:00 +8°C° 0.1 mm 4 mps 729 mmHg 85%
03:00 +7°C° 0 mm 4 mps 729 mmHg 84%
04:00 +7°C° 0 mm 4 mps 729 mmHg 83%
05:00 +7°C° 0 mm 4 mps 729 mmHg 82%
06:00 +7°C° 0 mm 4 mps 729 mmHg 83%
07:00 +7°C° 0 mm 4 mps 730 mmHg 84%
08:00 +7°C° 0 mm 4 mps 730 mmHg 85%
09:00 +7°C° 0 mm 4 mps 730 mmHg 82%
10:00 +7°C° 0 mm 4 mps 731 mmHg 80%
11:00 +8°C° 0 mm 4 mps 731 mmHg 78%
12:00 +9°C° 0 mm 3 mps 731 mmHg 76%
13:00 +8°C° 0 mm 3 mps 732 mmHg 75%
14:00 +8°C° 0 mm 3 mps 732 mmHg 73%
15:00 +8°C° 0 mm 3 mps 732 mmHg 78%
16:00 +7°C° 0 mm 2 mps 731 mmHg 83%
17:00 +6°C° 0 mm 2 mps 731 mmHg 87%
18:00 +7°C° 0 mm 1 mps 731 mmHg 89%
19:00 +6°C° 0 mm 1 mps 731 mmHg 92%
20:00 +6°C° 0 mm 1 mps 731 mmHg 94%
21:00 +6°C° 0 mm 1 mps 731 mmHg 95%
22:00 +6°C° 0 mm 1 mps 730 mmHg 95%
23:00 +5°C° 0 mm 2 mps 730 mmHg 96%

25 October, Sunday

Time Temperature Precipitation Wind Pressure Humidity
00:00 +5°C° 0 mm 2 mps 730 mmHg 96%
01:00 +6°C° 0 mm 1 mps 729 mmHg 96%
02:00 +5°C° 0 mm 1 mps 729 mmHg 96%
03:00 +6°C° 0.1 mm 1 mps 729 mmHg 96%
04:00 +6°C° 0.1 mm 1 mps 729 mmHg 96%
05:00 +6°C° 0.1 mm 1 mps 730 mmHg 96%
06:00 +6°C° 0.3 mm 1 mps 730 mmHg 96%
07:00 +6°C° 0.3 mm 1 mps 731 mmHg 96%
08:00 +7°C° 0.3 mm 1 mps 731 mmHg 96%
09:00 +6°C° 0.1 mm 2 mps 732 mmHg 94%
10:00 +7°C° 0.1 mm 2 mps 733 mmHg 92%
11:00 +7°C° 0.1 mm 3 mps 733 mmHg 90%
12:00 +8°C° 0 mm 3 mps 734 mmHg 88%
13:00 +8°C° 0 mm 3 mps 734 mmHg 86%
14:00 +8°C° 0 mm 3 mps 735 mmHg 84%
15:00 +8°C° 0 mm 3 mps 735 mmHg 86%
16:00 +7°C° 0 mm 3 mps 736 mmHg 87%
17:00 +7°C° 0 mm 3 mps 737 mmHg 88%
18:00 +7°C° 0 mm 3 mps 737 mmHg 87%
19:00 +7°C° 0 mm 3 mps 738 mmHg 86%
20:00 +5°C° 0 mm 3 mps 738 mmHg 85%
21:00 +6°C° 0 mm 2 mps 739 mmHg 87%
22:00 +5°C° 0 mm 2 mps 739 mmHg 89%
23:00 +6°C° 0 mm 1 mps 739 mmHg 91%

26 October, Monday

Time Temperature Precipitation Wind Pressure Humidity
00:00 +5°C° 0 mm 1 mps 740 mmHg 91%
01:00 +5°C° 0 mm 1 mps 740 mmHg 91%
02:00 +5°C° 0 mm 1 mps 740 mmHg 91%
03:00 +4°C° 0 mm 1 mps 741 mmHg 92%
04:00 +4°C° 0 mm 1 mps 741 mmHg 93%
05:00 +3°C° 0 mm 2 mps 741 mmHg 94%
06:00 +3°C° 0 mm 2 mps 741 mmHg 94%
07:00 +3°C° 0 mm 2 mps 742 mmHg 94%
08:00 +4°C° 0 mm 2 mps 742 mmHg 95%
09:00 +5°C° 0 mm 2 mps 742 mmHg 90%
10:00 +6°C° 0 mm 2 mps 742 mmHg 85%
11:00 +7°C° 0 mm 3 mps 742 mmHg 80%
12:00 +8°C° 0 mm 3 mps 742 mmHg 78%
13:00 +8°C° 0 mm 3 mps 742 mmHg 77%
14:00 +9°C° 0 mm 3 mps 742 mmHg 75%
15:00 +8°C° 0 mm 3 mps 742 mmHg 80%
16:00 +7°C° 0 mm 2 mps 742 mmHg 86%
17:00 +6°C° 0 mm 2 mps 742 mmHg 91%
18:00 +5°C° 0 mm 2 mps 742 mmHg 92%
19:00 +5°C° 0 mm 2 mps 742 mmHg 92%
20:00 +5°C° 0 mm 2 mps 742 mmHg 93%
21:00 +4°C° 0 mm 3 mps 742 mmHg 93%
22:00 +3°C° 0 mm 3 mps 742 mmHg 93%
23:00 +3°C° 0 mm 3 mps 743 mmHg 93%

27 October, Tuesday

Time Temperature Precipitation Wind Pressure Humidity
00:00 +3°C° 0 mm 3 mps 743 mmHg 93%
01:00 +3°C° 0 mm 3 mps 743 mmHg 94%
02:00 +3°C° 0 mm 3 mps 743 mmHg 94%
03:00 +2°C° 0 mm 3 mps 743 mmHg 94%
04:00 +2°C° 0 mm 3 mps 743 mmHg 94%
05:00 +2°C° 0 mm 3 mps 743 mmHg 94%
06:00 +2°C° 0 mm 3 mps 743 mmHg 93%
07:00 +2°C° 0 mm 3 mps 743 mmHg 93%
08:00 +2°C° 0 mm 3 mps 743 mmHg 92%
09:00 +4°C° 0 mm 3 mps 743 mmHg 87%
10:00 +5°C° 0 mm 3 mps 743 mmHg 82%
11:00 +7°C° 0 mm 3 mps 743 mmHg 77%
12:00 +6°C° 0 mm 4 mps 743 mmHg 77%
13:00 +7°C° 0 mm 4 mps 743 mmHg 76%
14:00 +7°C° 0 mm 4 mps 743 mmHg 75%
15:00 +8°C° 0 mm 3 mps 743 mmHg 80%
16:00 +7°C° 0 mm 3 mps 743 mmHg 84%
17:00 +5°C° 0 mm 3 mps 743 mmHg 88%
18:00 +5°C° 0 mm 3 mps 743 mmHg 89%
19:00 +5°C° 0 mm 3 mps 743 mmHg 90%
20:00 +5°C° 0 mm 3 mps 743 mmHg 91%
21:00 +5°C° 0 mm 3 mps 743 mmHg 90%
22:00 +5°C° 0 mm 3 mps 743 mmHg 89%
23:00 +5°C° 0 mm 3 mps 744 mmHg 89%
Show more